| time (UTC) | temp C | wind direction | speed KPH | gust KPH | rain 1hr cm | rain 24hr cm | rain mn cm | humidity % | barometer mb |
| 20260504232043 | 21 | 0 | 4.8 | 17.7 | 0.00 | 0.00 | 0.00 | 37 | 1009.4 |
| 20260504231549 | 21 | 162 | 4.8 | 14.5 | 0.00 | 0.00 | 0.00 | 37 | 1009.4 |
| 20260504231043 | 21 | 173 | 3.2 | 11.3 | 0.00 | 0.00 | 0.00 | 38 | 1009.5 |
| 20260504230544 | 21 | 199 | 3.2 | 16.1 | 0.00 | 0.00 | 0.00 | 38 | 1009.5 |
| 20260504230104 | 22 | 166 | 8.0 | 16.1 | 0.00 | 0.00 | 0.00 | 36 | 1009.4 |
| 20260504225546 | 22 | 109 | 3.2 | 16.1 | 0.00 | 0.00 | 0.00 | 35 | 1009.4 |
| 20260504225043 | 22 | 187 | 3.2 | 16.1 | 0.00 | 0.00 | 0.00 | 36 | 1009.4 |
| 20260504224552 | 22 | 291 | 1.6 | 11.3 | 0.00 | 0.00 | 0.00 | 37 | 1009.4 |
| 20260504224043 | 22 | 161 | 3.2 | 19.3 | 0.00 | 0.00 | 0.00 | 36 | 1009.3 |
| 20260504223543 | 22 | 196 | 3.2 | 19.3 | 0.00 | 0.00 | 0.00 | 36 | 1009.3 |
| 20260504223048 | 22 | 0 | 3.2 | 19.3 | 0.00 | 0.00 | 0.00 | 36 | 1009.4 |
| 20260504222543 | 22 | 228 | 4.8 | 20.9 | 0.00 | 0.00 | 0.00 | 37 | 1009.4 |
| 20260504222043 | 22 | 182 | 3.2 | 20.9 | 0.00 | 0.00 | 0.00 | 36 | 1009.3 |
| 20260504221600 | 22 | 156 | 3.2 | 20.9 | 0.00 | 0.00 | 0.00 | 35 | 1009.4 |
| 20260504221046 | 22 | 174 | 4.8 | 24.1 | 0.00 | 0.00 | 0.00 | 34 | 1009.3 |
| 20260504220544 | 22 | 165 | 3.2 | 24.1 | 0.00 | 0.00 | 0.00 | 36 | 1009.4 |
| 20260504220055 | 22 | 209 | 8.0 | 24.1 | 0.00 | 0.00 | 0.00 | 34 | 1009.5 |
| 20260504215547 | 22 | 222 | 6.4 | 17.7 | 0.00 | 0.00 | 0.00 | 34 | 1009.5 |
| 20260504215046 | 22 | 306 | 8.0 | 25.7 | 0.00 | 0.00 | 0.00 | 39 | 1009.5 |
| 20260504214550 | 22 | 180 | 11.3 | 25.7 | 0.00 | 0.00 | 0.00 | 34 | 1009.6 |
| 20260504214043 | 23 | 113 | 1.6 | 14.5 | 0.00 | 0.00 | 0.00 | 37 | 1009.5 |
| 20260504213545 | 23 | 170 | 3.2 | 24.1 | 0.00 | 0.00 | 0.00 | 35 | 1009.6 |
| 20260504213047 | 23 | 291 | 6.4 | 25.7 | 0.00 | 0.00 | 0.00 | 35 | 1009.6 |
| 20260504212545 | 23 | 170 | 6.4 | 25.7 | 0.00 | 0.00 | 0.00 | 34 | 1009.7 |
| 20260504212046 | 23 | 167 | 6.4 | 19.3 | 0.00 | 0.00 | 0.00 | 35 | 1009.7 |
| 20260504211548 | 23 | 135 | 4.8 | 16.1 | 0.00 | 0.00 | 0.00 | 36 | 1009.7 |
| 20260504211042 | 23 | 269 | 4.8 | 17.7 | 0.00 | 0.00 | 0.00 | 37 | 1009.6 |
| 20260504210544 | 23 | 274 | 4.8 | 19.3 | 0.00 | 0.00 | 0.00 | 37 | 1009.7 |
| 20260504210048 | 23 | 296 | 6.4 | 19.3 | 0.00 | 0.00 | 0.00 | 35 | 1009.7 |
| 20260504205544 | 23 | 208 | 6.4 | 20.9 | 0.00 | 0.00 | 0.00 | 33 | 1009.7 |
| 20260504205044 | 23 | 259 | 3.2 | 20.9 | 0.00 | 0.00 | 0.00 | 36 | 1009.6 |
| 20260504204555 | 22 | 169 | 9.7 | 25.7 | 0.00 | 0.00 | 0.00 | 35 | 1009.7 |
| 20260504204043 | 23 | 282 | 3.2 | 25.7 | 0.00 | 0.00 | 0.00 | 37 | 1009.7 |
| 20260504203546 | 22 | 170 | 11.3 | 24.1 | 0.00 | 0.00 | 0.00 | 36 | 1009.7 |
| 20260504203101 | 22 | 172 | 8.0 | 20.9 | 0.00 | 0.00 | 0.00 | 39 | 1009.7 |
| 20260504202543 | 23 | 282 | 3.2 | 19.3 | 0.00 | 0.00 | 0.00 | 33 | 1009.8 |
| 20260504202044 | 23 | 301 | 4.8 | 19.3 | 0.00 | 0.00 | 0.00 | 35 | 1009.9 |
| 20260504201556 | 22 | 217 | 6.4 | 19.3 | 0.00 | 0.00 | 0.00 | 34 | 1010.1 |
| 20260504201043 | 22 | 144 | 8.0 | 19.3 | 0.00 | 0.00 | 0.00 | 41 | 1010.1 |
| 20260504200544 | 22 | 178 | 6.4 | 19.3 | 0.00 | 0.00 | 0.00 | 34 | 1010.2 |
| 20260504200057 | 23 | 227 | 8.0 | 22.5 | 0.00 | 0.00 | 0.00 | 37 | 1010.1 |
| 20260504195543 | 22 | 269 | 4.8 | 27.4 | 0.00 | 0.00 | 0.00 | 36 | 1010.2 |
| 20260504195044 | 22 | 226 | 8.0 | 27.4 | 0.00 | 0.00 | 0.00 | 36 | 1010.4 |
| 20260504194556 | 22 | 165 | 6.4 | 17.7 | 0.00 | 0.00 | 0.00 | 38 | 1010.4 |
| 20260504194044 | 22 | 286 | 3.2 | 19.3 | 0.00 | 0.00 | 0.00 | 36 | 1010.3 |
| 20260504193543 | 22 | 285 | 8.0 | 25.7 | 0.00 | 0.00 | 0.00 | 38 | 1010.5 |
| 20260504193105 | 22 | 305 | 14.5 | 25.7 | 0.00 | 0.00 | 0.00 | 34 | 1010.6 |
| 20260504192543 | 23 | 259 | 8.0 | 22.5 | 0.00 | 0.00 | 0.00 | 35 | 1010.6 |
| 20260504192043 | 22 | 275 | 8.0 | 22.5 | 0.00 | 0.00 | 0.00 | 39 | 1010.8 |
| 20260504191605 | 22 | 286 | 4.8 | 22.5 | 0.00 | 0.00 | 0.00 | 37 | 1010.7 |
| 20260504191043 | 22 | 113 | 11.3 | 20.9 | 0.00 | 0.00 | 0.00 | 34 | 1010.9 |
| 20260504190544 | 22 | 247 | 8.0 | 19.3 | 0.00 | 0.00 | 0.00 | 35 | 1011.0 |
| 20260504190121 | 22 | 321 | 6.4 | 17.7 | 0.00 | 0.00 | 0.00 | 40 | 1011.2 |
| 20260504185544 | 22 | 242 | 6.4 | 17.7 | 0.00 | 0.00 | 0.00 | 37 | 1011.0 |
| 20260504185043 | 22 | 143 | 4.8 | 20.9 | 0.00 | 0.00 | 0.00 | 37 | 1011.1 |
| 20260504184555 | 22 | 265 | 3.2 | 20.9 | 0.00 | 0.00 | 0.00 | 38 | 1011.2 |
| 20260504184046 | 22 | 265 | 6.4 | 20.9 | 0.00 | 0.00 | 0.00 | 33 | 1011.3 |
| 20260504183543 | 22 | 252 | 8.0 | 22.5 | 0.00 | 0.00 | 0.00 | 37 | 1011.2 |
| 20260504183105 | 22 | 263 | 9.7 | 22.5 | 0.00 | 0.00 | 0.00 | 34 | 1011.3 |
| 20260504182544 | 22 | 20 | 9.7 | 22.5 | 0.00 | 0.00 | 0.00 | 35 | 1011.6 |
| 20260504182045 | 22 | 258 | 12.9 | 22.5 | 0.00 | 0.00 | 0.00 | 34 | 1011.7 |
| 20260504181602 | 22 | 232 | 8.0 | 19.3 | 0.00 | 0.00 | 0.00 | 40 | 1011.7 |
| 20260504181043 | 22 | 311 | 4.8 | 22.5 | 0.00 | 0.00 | 0.00 | 36 | 1011.7 |
| 20260504180543 | 22 | 170 | 8.0 | 22.5 | 0.00 | 0.00 | 0.00 | 40 | 1011.8 |
| 20260504180054 | 21 | 240 | 4.8 | 22.5 | 0.00 | 0.00 | 0.00 | 38 | 1011.7 |
| 20260504175547 | 21 | 227 | 1.6 | 14.5 | 0.00 | 0.00 | 0.00 | 43 | 1011.7 |
| 20260504175043 | 21 | 266 | 3.2 | 14.5 | 0.00 | 0.00 | 0.00 | 35 | 1011.7 |
| 20260504174552 | 21 | 238 | 4.8 | 16.1 | 0.00 | 0.00 | 0.00 | 41 | 1011.8 |
| 20260504174043 | 21 | 232 | 4.8 | 17.7 | 0.00 | 0.00 | 0.00 | 43 | 1011.9 |
| 20260504173544 | 21 | 301 | 6.4 | 17.7 | 0.00 | 0.00 | 0.00 | 41 | 1012.0 |
| 20260504173052 | 21 | 253 | 6.4 | 19.3 | 0.00 | 0.00 | 0.00 | 41 | 1012.1 |
| 20260504172543 | 21 | 309 | 4.8 | 19.3 | 0.00 | 0.00 | 0.00 | 38 | 1012.2 |
| 20260504172048 | 21 | 291 | 6.4 | 19.3 | 0.00 | 0.00 | 0.00 | 38 | 1012.1 |
| 20260504171556 | 21 | 282 | 1.6 | 20.9 | 0.00 | 0.00 | 0.00 | 40 | 1012.2 |
| 20260504171048 | 21 | 183 | 4.8 | 24.1 | 0.00 | 0.00 | 0.00 | 40 | 1012.4 |
| 20260504170547 | 21 | 301 | 8.0 | 24.1 | 0.00 | 0.00 | 0.00 | 37 | 1012.5 |
| 20260504151048 | 19 | 261 | 1.6 | 17.7 | 0.00 | 0.00 | 0.00 | 43 | 1013.5 |
| 20260504150548 | 18 | 357 | 4.8 | 17.7 | 0.00 | 0.00 | 0.00 | 44 | 1013.7 |
| 20260504141043 | 16 | 320 | 6.4 | 16.1 | 0.00 | 0.00 | 0.00 | 52 | 1013.9 |
| 20260504140545 | 16 | 149 | 3.2 | 17.7 | 0.00 | 0.00 | 0.00 | 51 | 1013.8 |
| 20260504130544 | 15 | 0 | 6.4 | 20.9 | 0.00 | 0.00 | 0.00 | 59 | 1014.0 |
| 20260504110543 | 6 | 0 | 0.0 | 3.2 | 0.00 | 0.00 | 0.00 | 91 | 1014.5 |
| 20260504100543 | 3 | 0 | 0.0 | 0.0 | 0.00 | 0.00 | 0.00 | 91 | 1014.6 |
| 20260504100103 | 3 | 0 | 0.0 | 0.0 | 0.00 | 0.00 | 0.00 | 91 | 1014.7 |
| 20260504081600 | 4 | 0 | 0.0 | 0.0 | 0.00 | 0.00 | 0.00 | 86 | 1015.0 |
| 20260504081042 | 4 | 0 | 0.0 | 0.0 | 0.00 | 0.00 | 0.00 | 86 | 1014.9 |
| 20260504080547 | 4 | 0 | 0.0 | 0.0 | 0.00 | 0.00 | 0.00 | 86 | 1014.8 |
| 20260504050546 | 5 | 0 | 0.0 | 0.0 | 0.00 | 0.00 | 0.00 | 79 | 1015.1 |
| 20260504050104 | 5 | 0 | 0.0 | 0.0 | 0.00 | 0.00 | 0.00 | 79 | 1014.9 |
| 20260504045546 | 5 | 0 | 0.0 | 0.0 | 0.00 | 0.00 | 0.00 | 79 | 1015.0 |
| 20260504045045 | 5 | 0 | 0.0 | 0.0 | 0.00 | 0.00 | 0.00 | 78 | 1015.0 |
| 20260504044601 | 5 | 0 | 0.0 | 0.0 | 0.00 | 0.00 | 0.00 | 79 | 1015.0 |
| 20260504044047 | 4 | 0 | 0.0 | 0.0 | 0.00 | 0.00 | 0.00 | 79 | 1015.0 |
| 20260504043547 | 4 | 0 | 0.0 | 0.0 | 0.00 | 0.00 | 0.00 | 80 | 1014.9 |
| 20260504043053 | 4 | 0 | 0.0 | 0.0 | 0.00 | 0.00 | 0.00 | 80 | 1015.0 |
| 20260504042546 | 4 | 0 | 0.0 | 0.0 | 0.00 | 0.00 | 0.00 | 82 | 1014.9 |
| 20260504042044 | 4 | 0 | 0.0 | 4.8 | 0.00 | 0.00 | 0.00 | 82 | 1014.9 |
| 20260504041550 | 3 | 0 | 0.0 | 4.8 | 0.00 | 0.00 | 0.00 | 82 | 1014.9 |
| 20260504041049 | 4 | 0 | 0.0 | 4.8 | 0.00 | 0.00 | 0.00 | 81 | 1014.7 |
| 20260504040544 | 4 | 0 | 0.0 | 0.0 | 0.00 | 0.00 | 0.00 | 81 | 1014.7 |
| 20260504035548 | 4 | 0 | 0.0 | 0.0 | 0.00 | 0.00 | 0.00 | 78 | 1014.6 |
| 20260504035044 | 5 | 0 | 0.0 | 0.0 | 0.00 | 0.00 | 0.00 | 78 | 1014.6 |
| 20260504034550 | 5 | 0 | 0.0 | 0.0 | 0.00 | 0.00 | 0.00 | 78 | 1014.5 |
| 20260504034050 | 5 | 0 | 0.0 | 0.0 | 0.00 | 0.00 | 0.00 | 78 | 1014.5 |
| 20260504033543 | 5 | 0 | 0.0 | 0.0 | 0.00 | 0.00 | 0.00 | 77 | 1014.5 |
| 20260504033051 | 5 | 0 | 0.0 | 0.0 | 0.00 | 0.00 | 0.00 | 77 | 1014.5 |
| 20260504032547 | 5 | 0 | 0.0 | 0.0 | 0.00 | 0.00 | 0.00 | 77 | 1014.4 |
| 20260504032044 | 5 | 0 | 0.0 | 0.0 | 0.00 | 0.00 | 0.00 | 79 | 1014.5 |
| 20260504031550 | 5 | 0 | 0.0 | 0.0 | 0.00 | 0.00 | 0.00 | 79 | 1014.4 |
| 20260504031046 | 5 | 0 | 0.0 | 0.0 | 0.00 | 0.00 | 0.00 | 78 | 1014.4 |
| 20260504030545 | 5 | 0 | 0.0 | 0.0 | 0.00 | 0.00 | 0.00 | 77 | 1014.3 |
| 20260504030053 | 5 | 0 | 0.0 | 0.0 | 0.00 | 0.00 | 0.00 | 78 | 1014.2 |
| 20260504025544 | 5 | 0 | 0.0 | 0.0 | 0.00 | 0.00 | 0.00 | 78 | 1014.2 |
| 20260504025044 | 5 | 0 | 0.0 | 0.0 | 0.00 | 0.00 | 0.00 | 79 | 1014.2 |
| 20260504024604 | 5 | 0 | 0.0 | 0.0 | 0.00 | 0.00 | 0.00 | 79 | 1014.2 |
| 20260504024048 | 5 | 0 | 0.0 | 0.0 | 0.00 | 0.00 | 0.00 | 78 | 1014.3 |
| 20260504023543 | 5 | 0 | 0.0 | 0.0 | 0.00 | 0.00 | 0.00 | 77 | 1014.3 |
| 20260504023054 | 5 | 0 | 0.0 | 0.0 | 0.00 | 0.00 | 0.00 | 77 | 1014.3 |
| 20260504022543 | 5 | 0 | 0.0 | 1.6 | 0.00 | 0.00 | 0.00 | 78 | 1014.3 |
| 20260504022044 | 5 | 0 | 0.0 | 1.6 | 0.00 | 0.00 | 0.00 | 78 | 1014.3 |
| 20260504021552 | 5 | 0 | 0.0 | 1.6 | 0.00 | 0.00 | 0.00 | 77 | 1014.3 |
| 20260504021043 | 6 | 0 | 0.0 | 1.6 | 0.00 | 0.00 | 0.00 | 77 | 1014.2 |
| 20260504020548 | 5 | 0 | 0.0 | 0.0 | 0.00 | 0.00 | 0.00 | 75 | 1014.2 |
| 20260504020051 | 5 | 0 | 0.0 | 1.6 | 0.00 | 0.00 | 0.00 | 75 | 1014.3 |
| 20260504015545 | 6 | 0 | 0.0 | 1.6 | 0.00 | 0.00 | 0.00 | 75 | 1014.2 |
| 20260504015047 | 6 | 0 | 0.0 | 0.0 | 0.00 | 0.00 | 0.00 | 74 | 1014.2 |
| 20260504014603 | 6 | 0 | 0.0 | 0.0 | 0.00 | 0.00 | 0.00 | 74 | 1014.3 |
| 20260504014045 | 6 | 0 | 0.0 | 0.0 | 0.00 | 0.00 | 0.00 | 74 | 1014.3 |
| 20260504013543 | 6 | 0 | 0.0 | 0.0 | 0.00 | 0.00 | 0.00 | 75 | 1014.1 |
| 20260504013051 | 6 | 0 | 0.0 | 0.0 | 0.00 | 0.00 | 0.00 | 73 | 1014.1 |
| 20260504012546 | 6 | 0 | 0.0 | 0.0 | 0.00 | 0.00 | 0.00 | 71 | 1014.1 |
| 20260504012043 | 6 | 0 | 0.0 | 0.0 | 0.00 | 0.00 | 0.00 | 69 | 1014.0 |
| 20260504011551 | 7 | 0 | 0.0 | 0.0 | 0.00 | 0.00 | 0.00 | 68 | 1014.0 |
| 20260504011042 | 7 | 0 | 0.0 | 0.0 | 0.00 | 0.00 | 0.00 | 67 | 1013.9 |
| 20260504010541 | 7 | 0 | 0.0 | 0.0 | 0.00 | 0.00 | 0.00 | 67 | 1013.8 |
| 20260504010055 | 7 | 0 | 0.0 | 1.6 | 0.00 | 0.00 | 0.00 | 66 | 1013.8 |
| 20260504005542 | 7 | 0 | 0.0 | 1.6 | 0.00 | 0.00 | 0.00 | 68 | 1013.8 |
| 20260504005044 | 8 | 0 | 0.0 | 0.0 | 0.00 | 0.00 | 0.00 | 67 | 1013.8 |
| 20260504004554 | 8 | 0 | 0.0 | 0.0 | 0.00 | 0.00 | 0.00 | 64 | 1013.8 |
| 20260504004044 | 8 | 0 | 0.0 | 0.0 | 0.00 | 0.00 | 0.00 | 64 | 1013.7 |
| 20260504003542 | 8 | 0 | 0.0 | 0.0 | 0.00 | 0.00 | 0.00 | 61 | 1013.5 |
| 20260504003057 | 8 | 0 | 0.0 | 0.0 | 0.00 | 0.00 | 0.00 | 61 | 1013.5 |
| 20260504002543 | 9 | 0 | 0.0 | 0.0 | 0.00 | 0.00 | 0.00 | 59 | 1013.4 |
| 20260504002041 | 10 | 0 | 0.0 | 0.0 | 0.00 | 0.00 | 0.00 | 58 | 1013.4 |
| 20260504001551 | 10 | 0 | 0.0 | 0.0 | 0.00 | 0.00 | 0.00 | 55 | 1013.2 |
| 20260504001043 | 10 | 0 | 0.0 | 0.0 | 0.00 | 0.00 | 0.00 | 51 | 1013.2 |
| 20260504000543 | 11 | 0 | 0.0 | 0.0 | 0.00 | 0.00 | 0.00 | 49 | 1013.0 |
| 20260504000134 | 11 | 0 | 0.0 | 1.6 | 0.00 | 0.00 | 0.00 | 48 | 1012.9 |
| 20260503235543 | 11 | 0 | 0.0 | 3.2 | 0.00 | 0.00 | 0.00 | 46 | 1012.8 |
| 20260503235043 | 11 | 0 | 0.0 | 3.2 | 0.00 | 0.00 | 0.00 | 45 | 1012.7 |
| 20260503234558 | 12 | 291 | 0.0 | 8.0 | 0.00 | 0.00 | 0.00 | 44 | 1012.7 |
| 20260503234047 | 12 | 0 | 0.0 | 8.0 | 0.00 | 0.00 | 0.00 | 45 | 1012.8 |
| 20260503233541 | 12 | 0 | 1.6 | 8.0 | 0.00 | 0.00 | 0.00 | 44 | 1012.8 |
| 20260503233053 | 13 | 0 | 1.6 | 6.4 | 0.00 | 0.00 | 0.00 | 41 | 1012.8 |
| 20260503232543 | 13 | 0 | 0.0 | 8.0 | 0.00 | 0.00 | 0.00 | 41 | 1012.8 |